Weather History for Gainesville, FL

Change the Weather History Date:

Friday, May 10, 2013

  Actual Average Record
Temperature  
Mean Temperature 74 °F 73 °F  
Max Temperature 90 °F 86 °F 96 °F (1927)
Min Temperature 58 °F 61 °F 44 °F (1923)
Degree Days  
Heating Degree Days 0 0  
Month to date heating degree days 2 0  
Since 1 July heating degree days 1038 1214  
Cooling Degree Days 9 8  
Month to date cooling degree days 41 75  
Year to date cooling degree days 327 282  
Growing Degree Days 22 (Base 50)    
Moisture  
Dew Point 58 °F    
Average Humidity 61    
Maximum Humidity 93    
Minimum Humidity 28    
Precipitation  
Precipitation 0.00 in 0.07 in 0.81 in (1902)
Month to date precipitation 3.46 0.63  
Year to date precipitation 9.89 14.14  
Snow  
Snow 0.00 in 0.00 in 0.00 in ()
Month to date snowfall 0.0 0.0  
Since 1 July snowfall 0.0 0.0  
Snow Depth 0.00 in    
Sea Level Pressure  
Sea Level Pressure 30.07 in    
Wind  
Wind Speed 5 mph (SW)    
Max Wind Speed 17 mph    
Max Gust Speed 23 mph    
Visibility 10 miles    
Events      
T = Trace of Precipitation, MM = Missing Value Source: NWS Daily Summary

Daily Weather History Graph

Daily Weather History Graph

Search for Another Location

Airport:

Trip Planner

Search our weather history database for the weather conditions in past years. The results will help you decide how hot, cold, wet, or windy it might be!

Date:

Astronomy

May. 10, 2013 Rise Set
Actual Time 6:39 AM EDT 8:11 PM EDT
Civil Twilight 6:13 AM EDT 8:37 PM EDT
Nautical Twilight 5:42 AM EDT 9:08 PM EDT
Astronomical Twilight 5:10 AM EDT 9:41 PM EDT
Moon 7:03 AM EDT (5/10) 8:58 PM EDT (5/10)
Length of Visible Light 14h 24m
Length of Day
13h 32m
New Moon, 0% of the Moon is Illuminated
May 10
New Moon
May 18
First Quarter
May 25
Full
May 31
Last Quarter
Jun 8
New

Hourly Weather History & Observations

Time (EDT) Temp. Heat Index Dew Point Humidity Pressure Visibility Wind Dir Wind Speed Gust Speed Precip Events Conditions
1:53 AM 62.1 °F - 59.0 °F 90% 30.14 in 9.0 mi Calm Calm - N/A   Clear
2:53 AM 61.0 °F - 57.9 °F 90% 30.12 in 9.0 mi NW 3.5 mph - N/A   Clear
4:53 AM 57.9 °F - 55.9 °F 93% 30.09 in 7.0 mi Calm Calm - N/A   Clear
5:53 AM 59.0 °F - 55.9 °F 90% 30.08 in 8.0 mi Calm Calm - N/A   Clear
6:53 AM 57.9 °F - 55.9 °F 93% 30.09 in 6.0 mi Calm Calm - N/A   Clear
8:53 AM 70.0 °F - 62.1 °F 76% 30.10 in 10.0 mi Calm Calm - N/A   Clear
9:53 AM 78.1 °F - 66.0 °F 66% 30.09 in 10.0 mi SSE 6.9 mph - N/A   Clear
10:53 AM 81.0 °F 82.5 °F 64.0 °F 56% 30.10 in 10.0 mi SE 11.5 mph - N/A   Clear
11:53 AM 84.0 °F 84.9 °F 63.0 °F 49% 30.11 in 10.0 mi SSE 12.7 mph 17.3 mph N/A   Partly Cloudy
12:53 PM 84.0 °F 84.0 °F 60.1 °F 44% 30.11 in 10.0 mi South 10.4 mph - N/A   Scattered Clouds
1:53 PM 86.0 °F 86.1 °F 61.0 °F 43% 30.09 in 10.0 mi SSE 11.5 mph 21.9 mph N/A   Scattered Clouds
2:53 PM 88.0 °F 86.9 °F 57.9 °F 36% 30.06 in 10.0 mi Variable 6.9 mph - N/A   Partly Cloudy
3:53 PM 87.1 °F 85.1 °F 54.0 °F 32% 30.04 in 10.0 mi WSW 8.1 mph - N/A   Scattered Clouds
4:53 PM 88.0 °F - 50.0 °F 27% 30.03 in 10.0 mi WSW 15.0 mph - N/A   Clear
5:53 PM 84.9 °F 83.6 °F 55.0 °F 36% 30.02 in 10.0 mi WSW 12.7 mph 19.6 mph N/A   Clear
6:53 PM 82.0 °F 82.0 °F 57.9 °F 44% 30.01 in 10.0 mi WSW 11.5 mph - N/A   Clear
7:53 PM 78.1 °F - 57.0 °F 48% 30.01 in 10.0 mi West 5.8 mph - N/A   Clear
8:53 PM 75.9 °F - 55.0 °F 48% 30.02 in 10.0 mi SW 3.5 mph - N/A   Clear
9:53 PM 70.0 °F - 57.9 °F 65% 30.03 in 10.0 mi Calm Calm - N/A   Clear
10:53 PM 68.0 °F - 57.9 °F 70% 30.05 in 10.0 mi Calm Calm - N/A   Clear
11:53 PM 64.9 °F - 57.9 °F 78% 30.06 in 10.0 mi Calm Calm - N/A   Clear